Location: Newark
(40.9833°N, 0.0333°W)
Time: 00:52:47
(UTC+00:00)

deb Explorer IX - Pass Details

Date: 04 November 2020
Orbit: 537 x 1105 km, 38.8° (Epoch: 02 December)

Event Time Altitude Azimuth Distance (km) Brightness Sun altitude
Rises 09:35:36 0° 268° (W) 3,664 ? 26.1°
Reaches altitude 10° 09:40:46 10° 234° (SW) 2,836 ? 26.7°
Maximum altitude 09:42:23 11° 220° (SW) 2,801 ? 26.8°
Drops below altitude 10° 09:44:01 10° 207° (SSW) 2,891 ? 27.0°
Sets 09:49:32 0° 174° (S) 3,898 ? 27.6°
